AirNav   Advertisement
 
 638 users online  

7GA8 Emory University Hospital Heliport
Atlanta, Georgia, USA

GOING TO ATLANTA?


FAA INFORMATION EFFECTIVE 14 SEPTEMBER 2017

Location

FAA Identifier: 7GA8
Lat/Long: 33-47-30.9100N / 084-19-21.3100W
33-47.515167N / 084-19.355167W
33.7919194 / -84.3225861
(estimated)
Elevation: 1051 ft. / 320 m (estimated)
Variation: 02W (1985)
Time zone: UTC -4 (UTC -5 during Standard Time)
Zip code: 30322

Heliport Operations

Heliport use: Private use, MEDICAL USE.
Activation date: 05/1991
Control tower: no
ARTCC: ATLANTA CENTER
FSS: MACON FLIGHT SERVICE STATION
Attendance: UNATNDD
PPR 45 MINUTES TO LAND; CALL TRIAGE NURSE/ADMIN SUPVR 404-686-5500 ASK FOR PIC 23648 NR .
Wind indicator: yes
Segmented circle: no
Lights: ACTVT PERIMETER LIGHTS - 123.05.
Beacon: white-green-yellow (heliport)
ACTVT ROTG BCN - 123.05.

Heliport Communications

WX ASOS at PDK (5 nm N): PHONE 770-457-1691
WX ASOS at FTY (10 nm W): PHONE 404-696-5660
WX ASOS at ATL (11 nm SW): PHONE 404-762-1121
WX AWOS-3PT at RYY (19 nm NW): PHONE 770-425-3406

Nearby radio navigation aids

VOR radial/distance  VOR name  Freq  Var
PDKr198/5.2PEACHTREE VOR/DME116.6005W
ATLr035/11.3ATLANTA VORTAC116.9005W

 
NDB name  Hdg/Dist  Freq  Var  ID
ALCOVY293/28.737003WVOF ...- --- ..-.
CHERO168/28.841505WDJD -.. .--- -..
MONROE280/29.939204WJNM .--- -. --
PECAT021/30.631605WFFC ..-. ..-. -.-.
FLOWERY BRANCH223/32.236503WFKV ..-. -.- ...-
CARTERSVILLE137/35.630804WEVZ . ...- --..
BARROW COUNTY262/37.540405WBMW -... -- .--
COWETA COUNTY034/37.623403WEQQ . --.- --.-

Heliport Services

Runway Information

Helipad H1

Dimensions: 39 x 39 ft. / 12 x 12 m
Surface: concrete
ROOFTOP PAD.
Runway edge lights: PERIMETER LIGHTS.
Latitude: 33-47.515167N
Longitude: 084-19.355167W
Elevation: 1051.0 ft.
Traffic pattern: leftleft

Heliport Ownership and Management from official FAA records

Ownership: Privately-owned
Owner: EMORY UNIVERSITY HOSPITAL
1364 CLIFTON ROAD NE
ATLANTA, GA 30322
Phone 404-727-4881
Manager: EMORY UNIVERSITY HOSPITAL
1364 CLIFTON ROAD NE
ATLANTA, GA 30322
Phone (404) 712-2626
404-686-1000

Additional Remarks

FOR NOISE ABATEMENT USE STEEP APCH ANGLE, MAINTAIN 100 FT AGL IF POSSIBLE BUT NO LESS THAN 500 FT AGL UNTIL APCH ANGLE IS INTERCEPTED; ALL APCH/DEP ALONG 150/330.
MAXIMUM ACFT WEIGHT 10000 LBS.
A52-H1 11 STORY BLDG 23 FT NE; 12 FT TOWERS 29 FT SOUTH; 42 INCH FENCE 9 FT EAST; 42 INCH FENCE 0 FT SW OF HELIPAD.

Instrument Procedures

There are no published instrument procedures at 7GA8.

Some nearby airports with instrument procedures:

KPDK - Dekalb-Peachtree Airport (5 nm N)
KFTY - Fulton County Airport-Brown Field (10 nm W)
KATL - Hartsfield - Jackson Atlanta International Airport (11 nm SW)
KMGE - Dobbins Air Reserve Base (12 nm NW)
KRYY - Cobb County International Airport-McCollum Field (19 nm NW)
 
Loc | Ops | Rwys | IFR | FBO | Links
Com | Nav | Svcs | Stats | Notes


 
Area around 7GA8 (Emory University Hospital Heliport)
 
Road maps at: MapQuest Bing Google
 
Aerial photo
WARNING: Photo may not be current or correct
Aerial photo of 7GA8 (Emory University Hospital Heliport)
Do you have a better or more recent aerial photo of Emory University Hospital Heliport that you would like to share? If so, please send us your photo.

 
Sectional chart

 
Airport distance calculator
Flying to Emory University Hospital Heliport? Find the distance to fly.

From to 7GA8

Sunrise and sunset
Times for 22-Sep-2017
 Local
(UTC-4)
 Zulu
(UTC)
Morning civil twilight07:0111:01
Sunrise07:2611:26
Sunset19:3423:34
Evening civil twilight19:5923:59

Current date and time
Zulu (UTC)  22-Sep-2017 11:31:42
Local (UTC-4)  22-Sep-2017 07:31:42
 
METAR
KPDK 
6nm N 
221053Z 05003KT 10SM CLR 21/18 A3007 RMK AO2 SLP167 T02110183
KFTY 
10nm W 
221053Z 00000KT 10SM FEW060 SCT095 20/19 A3006 RMK AO2 SLP171 T02000194
KATL 
11nm SW 
221052Z 08007KT 10SM FEW055 FEW100 SCT200 21/19 A3007 RMK AO2 SLP174 TCU DSNT N & NE T02110189
KMGE 
12nm NW 
221056Z 00000KT 10SM SCT055 21/19 A3008 RMK AO2A SLP177 T02080185 $
KRYY 
19nm NW 
221051Z AUTO 10004KT 10SM CLR 21/18 A3009 RMK AO2 SLP188 T02060183
TAF
KPDK 
6nm N 
220956Z 2210/2306 VRB03KT P6SM FEW060 FM221800 08004KT P6SM VCSH SCT050 FM230200 09003KT P6SM SCT250
KFTY 
10nm W 
220956Z 2210/2306 VRB03KT P6SM SCT060 FM221800 08004KT P6SM VCSH SCT050 FM230200 10003KT P6SM SCT250
KATL 
11nm SW 
220956Z 2210/2312 07005KT P6SM FEW060 FEW150 FM221800 09006KT P6SM VCSH SCT050 FM230300 09005KT P6SM BKN250
KMGE 
12nm NW 
220500Z 2205/2311 08006KT 9999 SCT150 QNH3000INS BECMG 2214/2215 14006KT 9999 SCT035 SCT055 QNH2998INS BECMG 2223/2224 VRB06KT 9999 FEW050 FEW150 QNH3000INS TX32/2221Z TN22/2212Z
KRYY 
19nm NW 
220956Z 2210/2306 VRB03KT P6SM FEW060 FM221800 08004KT P6SM VCSH SCT050 FM230200 10003KT P6SM SCT250
NOTAMs
Click for the latest NOTAMs
NOTAMs are issued by the DoD/FAA and will open in a separate window not controlled by AirNav.

 

 
 

Would you like to see your business listed on this page?

 If your business provides an interesting product or service to pilots, flight crews, aircraft, or users of the Emory University Hospital Heliport, you should consider listing it here.  To start the listing process, click on the button below
 
Add a business
 

Other Pages about Emory University Hospital Heliport

Update a link
 
Copyright © AirNav, LLC. All rights reserved. Privacy Policy  Contact